�������l�o���
Date,Time,MP-1(��Sv/h),MP-2(��Sv/h),MP-3(��Sv/h),MP-4(��Sv/h),MP-5(��Sv/h),MP-6(��Sv/h),MP-7(��Sv/h),MP-8(��Sv/h),����,����(m/s),���J
2024/02/19,00:00,0.516,0.786,0.489,0.985,0.712,0.315,0.562,0.524,��,8.4,��
2024/02/19,00:10,0.519,0.785,0.488,0.984,0.709,0.314,0.561,0.522,��,7.6,��
2024/02/19,00:20,0.518,0.784,0.491,0.984,0.709,0.315,0.560,0.524,��,7.5,��
2024/02/19,00:30,0.518,0.784,0.491,0.984,0.709,0.315,0.562,0.523,��,7.6,��
2024/02/19,00:40,0.517,0.784,0.489,0.984,0.709,0.315,0.560,0.523,��,8.5,��
2024/02/19,00:50,0.518,0.787,0.489,0.983,0.708,0.315,0.561,0.523,��,9.2,��
2024/02/19,01:00,0.517,0.785,0.489,0.984,0.710,0.315,0.559,0.522,��,9.5,��
2024/02/19,01:10,0.516,0.783,0.489,0.986,0.710,0.315,0.563,0.523,��,8.9,��
2024/02/19,01:20,0.517,0.786,0.489,0.985,0.709,0.315,0.562,0.523,��,9.2,��
2024/02/19,01:30,0.518,0.785,0.489,0.985,0.708,0.314,0.561,0.523,��,9.4,��
2024/02/19,01:40,0.519,0.785,0.490,0.984,0.707,0.314,0.561,0.523,��쐼,9.3,��
2024/02/19,01:50,0.516,0.785,0.489,0.984,0.709,0.314,0.561,0.523,��,9.0,��
2024/02/19,02:00,0.516,0.785,0.491,0.984,0.708,0.314,0.562,0.524,��,8.8,��
2024/02/19,02:10,0.517,0.785,0.489,0.983,0.708,0.314,0.560,0.525,��쐼,8.8,��
2024/02/19,02:20,0.517,0.785,0.490,0.983,0.708,0.314,0.561,0.523,��쐼,9.4,��
2024/02/19,02:30,0.518,0.786,0.491,0.984,0.709,0.314,0.561,0.524,��쐼,9.8,��
2024/02/19,02:40,0.518,0.783,0.490,0.984,0.709,0.314,0.561,0.523,��쐼,9.8,��
2024/02/19,02:50,0.518,0.786,0.490,0.987,0.709,0.314,0.561,0.523,��쐼,9.6,��
2024/02/19,03:00,0.518,0.786,0.489,0.984,0.708,0.314,0.562,0.523,��,9.5,��
2024/02/19,03:10,0.517,0.786,0.489,0.984,0.708,0.314,0.561,0.523,��,9.7,��
2024/02/19,03:20,0.517,0.787,0.490,0.985,0.709,0.314,0.561,0.524,��,8.9,��
2024/02/19,03:30,0.518,0.785,0.489,0.983,0.708,0.315,0.560,0.523,��,9.0,��
2024/02/19,03:40,0.517,0.786,0.489,0.984,0.711,0.314,0.561,0.524,��,9.4,��
2024/02/19,03:50,0.518,0.786,0.489,0.986,0.708,0.314,0.561,0.524,��,10.0,��
2024/02/19,04:00,0.518,0.787,0.490,0.984,0.710,0.315,0.562,0.523,��,11.0,��
2024/02/19,04:10,0.516,0.786,0.489,0.984,0.710,0.315,0.561,0.524,��,10.3,��
2024/02/19,04:20,0.517,0.785,0.489,0.985,0.709,0.314,0.562,0.524,��,11.1,��
2024/02/19,04:30,0.518,0.785,0.489,0.984,0.712,0.312,0.561,0.522,��,10.3,��
2024/02/19,04:40,0.517,0.787,0.490,0.986,0.709,0.315,0.562,0.524,��,10.0,��
2024/02/19,04:50,0.519,0.783,0.489,0.984,0.710,0.314,0.561,0.523,��,9.9,��
2024/02/19,05:00,0.518,0.784,0.490,0.984,0.709,0.314,0.561,0.523,��,9.4,��
2024/02/19,05:10,0.517,0.785,0.488,0.985,0.709,0.315,0.561,0.523,��,10.6,��
2024/02/19,05:20,0.518,0.786,0.489,0.983,0.710,0.315,0.562,0.525,��,11.3,��
2024/02/19,05:30,0.517,0.785,0.490,0.985,0.711,0.313,0.563,0.524,��,11.1,��
2024/02/19,05:40,0.518,0.785,0.489,0.986,0.710,0.314,0.562,0.525,��,10.6,��
2024/02/19,05:50,0.517,0.783,0.490,0.985,0.711,0.314,0.561,0.524,��,9.0,��
2024/02/19,06:00,0.518,0.784,0.488,0.985,0.709,0.314,0.562,0.524,��,10.8,��
2024/02/19,06:10,0.516,0.783,0.489,0.985,0.709,0.315,0.559,0.525,��,12.2,��
2024/02/19,06:20,0.517,0.784,0.490,0.985,0.710,0.315,0.562,0.525,��,10.0,��
2024/02/19,06:30,0.517,0.785,0.490,0.987,0.710,0.316,0.561,0.524,��,10.0,��
2024/02/19,06:40,0.517,0.784,0.489,0.984,0.708,0.314,0.561,0.525,��,9.2,��
2024/02/19,06:50,0.517,0.785,0.490,0.984,0.709,0.314,0.562,0.525,��,8.1,��
2024/02/19,07:00,0.518,0.784,0.490,0.984,0.709,0.315,0.564,0.524,��,10.7,��
2024/02/19,07:10,0.519,0.783,0.489,0.984,0.709,0.315,0.561,0.524,��쐼,8.8,��
2024/02/19,07:20,0.517,0.783,0.490,0.985,0.709,0.314,0.562,0.525,��,10.7,��
2024/02/19,07:30,0.518,0.784,0.489,0.984,0.710,0.314,0.562,0.524,��,12.4,��
2024/02/19,07:40,0.518,0.787,0.490,0.982,0.709,0.315,0.561,0.523,��,10.0,��
2024/02/19,07:50,0.517,0.785,0.489,0.984,0.710,0.315,0.561,0.525,��,11.6,��
2024/02/19,08:00,0.519,0.784,0.490,0.984,0.708,0.314,0.562,0.525,��쐼,9.0,��
2024/02/19,08:10,0.518,0.784,0.489,0.985,0.709,0.315,0.561,0.525,��쐼,10.5,�L
2024/02/19,08:20,0.518,0.782,0.489,0.983,0.710,0.314,0.560,0.525,��,9.6,��
2024/02/19,08:30,0.519,0.779,0.490,0.986,0.710,0.315,0.562,0.525,��,11.8,��
2024/02/19,08:40,0.518,0.782,0.491,0.985,0.709,0.316,0.560,0.526,��쐼,10.9,��
2024/02/19,08:50,0.516,0.784,0.490,0.986,0.709,0.314,0.561,0.525,��,11.8,��
2024/02/19,09:00,0.517,0.782,0.490,0.986,0.708,0.315,0.561,0.524,��,13.5,��
2024/02/19,09:10,0.518,0.781,0.490,0.985,0.710,0.316,0.561,0.524,��,11.1,��
2024/02/19,09:20,0.517,0.782,0.491,0.985,0.709,0.316,0.561,0.525,��,10.7,��
2024/02/19,09:30,0.516,0.782,0.491,0.987,0.707,0.315,0.560,0.525,��쐼,9.6,��
2024/02/19,09:40,0.517,0.783,0.491,0.984,0.709,0.315,0.563,0.526,��쐼,9.6,��
2024/02/19,09:50,0.516,0.781,0.489,0.985,0.704,0.314,0.561,0.525,��,10.8,��
2024/02/19,10:00,0.516,0.780,0.489,0.984,0.708,0.316,0.561,0.523,��,14.6,��
2024/02/19,10:10,0.516,0.783,0.490,0.985,0.708,0.316,0.560,0.523,��,11.0,��
2024/02/19,10:20,0.517,0.782,0.490,0.985,0.707,0.314,0.559,0.524,��,9.9,��
2024/02/19,10:30,0.517,0.781,0.489,0.987,0.709,0.313,0.562,0.523,��,9.3,��
2024/02/19,10:40,0.517,0.784,0.490,0.986,0.706,0.314,0.561,0.523,��,10.9,��
2024/02/19,10:50,0.517,0.783,0.490,0.986,0.708,0.315,0.561,0.524,��,10.2,��
2024/02/19,11:00,0.516,0.783,0.489,0.985,0.707,0.315,0.562,0.524,��,9.4,��
2024/02/19,11:10,0.515,0.784,0.487,0.988,0.708,0.316,0.561,0.523,��쐼,9.6,��
2024/02/19,11:20,0.516,0.782,0.489,0.987,0.708,0.314,0.561,0.523,��,9.1,��
2024/02/19,11:30,0.517,0.781,0.487,0.988,0.708,0.314,0.560,0.524,��,10.7,��
2024/02/19,11:40,0.516,0.782,0.487,0.989,0.710,0.315,0.559,0.524,��,11.7,��
2024/02/19,11:50,0.516,0.783,0.489,0.989,0.707,0.316,0.561,0.524,��,9.0,��
2024/02/19,12:00,0.516,0.783,0.488,0.987,0.709,0.315,0.562,0.524,��,11.3,��
2024/02/19,12:10,0.516,0.785,0.490,0.987,0.709,0.315,0.562,0.523,��,9.8,��
2024/02/19,12:20,0.518,0.783,0.489,0.988,0.708,0.314,0.562,0.523,��,10.0,��
2024/02/19,12:30,0.517,0.784,0.489,0.988,0.712,0.315,0.563,0.523,��,8.5,��
2024/02/19,12:40,0.515,0.784,0.488,0.987,0.710,0.316,0.563,0.522,��,10.7,��
2024/02/19,12:50,0.518,0.781,0.488,0.989,0.710,0.315,0.561,0.522,��,8.7,��
2024/02/19,13:00,0.519,0.783,0.490,0.988,0.710,0.316,0.561,0.523,��,13.8,��
2024/02/19,13:10,0.518,0.783,0.489,0.986,0.709,0.316,0.562,0.524,��,10.2,��
2024/02/19,13:20,0.518,0.784,0.489,0.987,0.709,0.316,0.561,0.524,��,9.7,��
2024/02/19,13:30,0.517,0.783,0.489,0.987,0.710,0.317,0.562,0.524,��,9.9,��
2024/02/19,13:40,0.518,0.784,0.490,0.989,0.710,0.317,0.562,0.523,��,12.5,��
2024/02/19,13:50,0.517,0.784,0.488,0.987,0.708,0.315,0.560,0.524,��,11.9,��
2024/02/19,14:00,0.517,0.782,0.489,0.987,0.710,0.316,0.562,0.525,��,10.7,��
2024/02/19,14:10,0.518,0.783,0.489,0.990,0.709,0.315,0.561,0.523,��,11.0,��
2024/02/19,14:20,0.517,0.783,0.489,0.988,0.709,0.316,0.562,0.524,��,9.4,��
2024/02/19,14:30,0.519,0.783,0.489,0.988,0.709,0.316,0.561,0.525,��,10.0,��
2024/02/19,14:40,0.518,0.783,0.489,0.988,0.710,0.315,0.562,0.524,��,9.5,��
2024/02/19,14:50,0.517,0.785,0.489,0.990,0.709,0.314,0.561,0.523,��,9.1,��
2024/02/19,15:00,0.519,0.783,0.490,0.988,0.712,0.315,0.562,0.523,��,8.6,��
2024/02/19,15:10,0.517,0.784,0.489,0.988,0.710,0.315,0.561,0.522,��,9.0,��
2024/02/19,15:20,0.517,0.783,0.490,0.986,0.710,0.315,0.561,0.523,��,10.7,��
2024/02/19,15:30,0.519,0.783,0.490,0.988,0.710,0.314,0.562,0.525,��,9.3,��
2024/02/19,15:40,0.517,0.783,0.490,0.989,0.710,0.316,0.563,0.524,��,12.4,��
2024/02/19,15:50,0.518,0.783,0.489,0.990,0.709,0.316,0.562,0.524,��,9.6,��
2024/02/19,16:00,0.517,0.783,0.491,0.989,0.710,0.317,0.562,0.523,��,10.6,��
2024/02/19,16:10,0.517,0.784,0.490,0.989,0.710,0.316,0.562,0.522,��,7.9,��
2024/02/19,16:20,0.517,0.784,0.490,0.989,0.709,0.316,0.562,0.523,��,9.1,��
2024/02/19,16:30,0.518,0.784,0.491,0.989,0.709,0.316,0.561,0.526,��,11.7,�L
2024/02/19,16:40,0.519,0.783,0.490,0.988,0.710,0.316,0.562,0.523,��,9.9,��
2024/02/19,16:50,0.518,0.783,0.490,0.989,0.708,0.316,0.559,0.523,��쐼,8.0,��
2024/02/19,17:00,0.518,0.785,0.490,0.989,0.710,0.318,0.562,0.524,��쐼,7.6,��
2024/02/19,17:10,0.518,0.785,0.490,0.990,0.710,0.316,0.562,0.525,��쐼,8.3,��
2024/02/19,17:20,0.518,0.785,0.490,0.987,0.711,0.317,0.562,0.524,��,8.7,��
2024/02/19,17:30,0.519,0.784,0.491,0.989,0.709,0.316,0.563,0.525,��,9.4,��
2024/02/19,17:40,0.520,0.782,0.492,0.989,0.709,0.316,0.563,0.526,��,9.4,�L
2024/02/19,17:50,0.518,0.785,0.493,0.988,0.709,0.317,0.562,0.525,��,10.2,�L
2024/02/19,18:00,0.519,0.784,0.493,0.988,0.710,0.315,0.560,0.524,��,12.4,�L
2024/02/19,18:10,0.519,0.784,0.493,0.990,0.710,0.316,0.562,0.525,��,13.8,�L
2024/02/19,18:20,0.519,0.786,0.493,0.989,0.709,0.316,0.561,0.526,��,10.9,��
2024/02/19,18:30,0.520,0.784,0.492,0.988,0.710,0.316,0.562,0.526,��,10.0,�L
2024/02/19,18:40,0.519,0.785,0.492,0.988,0.711,0.316,0.562,0.525,��,10.9,��
2024/02/19,18:50,0.518,0.782,0.492,0.987,0.711,0.317,0.563,0.526,��,11.9,��
2024/02/19,19:00,0.518,0.785,0.493,0.989,0.710,0.316,0.561,0.525,��,12.4,��
2024/02/19,19:10,0.519,0.786,0.492,0.987,0.710,0.316,0.562,0.526,��,9.0,��
2024/02/19,19:20,0.519,0.784,0.492,0.990,0.710,0.317,0.562,0.525,��,11.6,�L
2024/02/19,19:30,0.520,0.785,0.493,0.988,0.710,0.317,0.561,0.525,��,12.2,�L
2024/02/19,19:40,0.519,0.785,0.492,0.987,0.709,0.317,0.562,0.526,��,13.5,��
2024/02/19,19:50,0.520,0.784,0.492,0.992,0.710,0.316,0.562,0.525,��,12.7,�L
2024/02/19,20:00,0.518,0.785,0.491,0.988,0.708,0.316,0.561,0.526,��,13.8,�L
2024/02/19,20:10,0.520,0.783,0.493,0.989,0.712,0.316,0.563,0.525,��,11.4,�L
2024/02/19,20:20,0.521,0.786,0.492,0.990,0.711,0.318,0.563,0.526,��쐼,10.7,�L
2024/02/19,20:30,0.518,0.787,0.492,0.989,0.709,0.317,0.562,0.526,��,11.6,��
2024/02/19,20:40,0.519,0.786,0.494,0.989,0.710,0.316,0.563,0.524,��,13.1,��
2024/02/19,20:50,0.518,0.787,0.492,0.988,0.710,0.317,0.565,0.526,��쐼,11.3,�L
2024/02/19,21:00,0.520,0.786,0.493,0.988,0.710,0.317,0.561,0.525,��,12.5,�L
2024/02/19,21:10,0.519,0.786,0.493,0.990,0.711,0.317,0.562,0.524,��,11.6,�L
2024/02/19,21:20,0.520,0.786,0.493,0.989,0.710,0.318,0.564,0.524,��쐼,9.7,�L
2024/02/19,21:30,0.520,0.787,0.494,0.990,0.711,0.318,0.563,0.525,��,13.8,�L
2024/02/19,21:40,0.520,0.784,0.493,0.990,0.712,0.318,0.563,0.525,��,11.3,�L
2024/02/19,21:50,0.521,0.786,0.494,0.989,0.711,0.318,0.563,0.526,��쐼,10.6,�L
2024/02/19,22:00,0.522,0.788,0.494,0.992,0.711,0.318,0.564,0.528,��,13.8,�L
2024/02/19,22:10,0.522,0.787,0.493,0.992,0.711,0.319,0.562,0.526,��쐼,10.5,�L
2024/02/19,22:20,0.519,0.787,0.493,0.989,0.711,0.319,0.562,0.525,��,10.9,�L
2024/02/19,22:30,0.521,0.787,0.494,0.990,0.710,0.320,0.561,0.526,��,11.3,�L
2024/02/19,22:40,0.523,0.787,0.496,0.992,0.712,0.320,0.562,0.527,��,11.7,�L
2024/02/19,22:50,0.525,0.790,0.497,0.991,0.713,0.322,0.562,0.528,��,11.3,�L
2024/02/19,23:00,0.525,0.789,0.496,0.992,0.712,0.323,0.562,0.528,��,10.2,�L
2024/02/19,23:10,0.525,0.791,0.498,0.993,0.713,0.323,0.562,0.527,��,9.8,�L
2024/02/19,23:20,0.527,0.788,0.498,0.993,0.713,0.324,0.563,0.525,��,9.6,�L
2024/02/19,23:30,0.527,0.790,0.496,0.992,0.711,0.325,0.564,0.526,��,10.6,�L
2024/02/19,23:40,0.527,0.788,0.497,0.991,0.710,0.324,0.563,0.527,��,11.4,�L
2024/02/19,23:50,0.526,0.790,0.497,0.991,0.711,0.324,0.562,0.528,��,10.6,�L
